Location: Ambatomalaza
(18.7455°S, 47.4553°E)
Time: 01:48:30
(UTC+00:00)

Daily predictions for brighter satellites

Satellite Brightness Start Highest point End
(mag) Time Altitude Azimuth Time Altitude Azimuth Time Altitude Azimuth
ATLAS 2A CENTAUR R/B 3.8 00:20:22 25° SE 00:20:22 25° SE 00:25:19 10° ESE
ADEOS Rocket 3.6 00:14:15 10° SSE 00:20:18 57° ESE 00:20:18 57° ESE
Centaur AC-42 3.2 00:40:06 33° ENE 00:40:06 33° ENE 00:42:16 10° ENE
Delta 2 Rocket 4.4 00:39:59 74° NW 00:40:53 85° NNE 00:50:19 10° ESE
Cosmos 2227 Rocket 2.8 00:38:49 10° S 00:44:23 54° ESE 00:49:54 10° NNE
H-II Stage 2 3.9 00:48:37 70° SSW 00:48:39 70° S 01:04:11 10° ESE
SWIFT 3.7 00:51:21 37° ESE 00:51:21 37° ESE 00:54:02 10° E
Cosmos 676 Rocket 4.1 00:46:43 10° S 00:52:05 76° ESE 00:57:24 10° NNE
Cosmos 2297 Rocket 2.5 01:01:05 50° N 01:01:05 50° N 01:05:13 10° N
SEDSat Delta rocket 4.1 01:08:26 35° N 01:08:26 35° N 01:11:54 10° NE
Lacrosse 5 rocket 2.3 01:08:43 38° NE 01:08:43 38° NE 01:11:22 10° NNE
Meteor 1-26 Rocket 4.0 01:03:45 10° S 01:09:14 89° E 01:14:47 10° N
Cosmos 1980 Rocket 3.6 01:12:02 24° SW 01:12:02 24° SW 01:14:52 10° S
Delta 168 3.4 01:12:08 48° NNE 01:12:14 48° NNE 01:17:11 10° E
Cosmos 1331 Rocket 4.4 01:15:25 44° SW 01:15:25 44° SW 01:19:45 10° S
Cosmos 1932 4.5 01:14:02 50° W 01:14:48 53° WSW 01:20:52 10° SSE
Intelsat 5-1 Rocket 4.1 01:14:36 34° NW 01:14:49 34° NW 01:19:39 10° NNE
Cosmos 1782 2.7 01:11:23 10° S 01:15:23 83° E 01:15:58 63° NNE
Hubble Space Telescope 0.8 01:16:28 66° S 01:16:28 66° S 01:20:30 10° ESE
Meteor 1-31 Rocket 3.4 01:18:24 43° SSW 01:18:24 43° SSW 01:21:03 10° SSW
SL-23 DEB 3.7 01:18:41 63° SE 01:18:41 63° SE 01:21:22 10° SE
Milstar 3 4.1 01:12:28 28° WSW 01:18:49 87° NNW 01:38:08 10° ENE
Cosmos 1818 3.4 01:15:20 10° SSW 01:20:43 81° WNW 01:26:05 10° NNE
USA 215 4.3 01:17:25 10° ENE 01:23:34 45° SE 01:29:44 10° SSW
Atlas 2A Centaur Rocket 4.4 01:08:29 25° NW 01:23:51 69° NNE 01:29:31 10° ESE
DELTA 2 R/B (1) 4.0 01:23:25 40° WSW 01:24:38 46° SW 01:30:03 10° SE
Cosmos 2322 Rocket 2.7 01:21:59 10° N 01:27:35 61° ENE 01:33:13 10° SSE
SJ-12 3.8 01:30:10 10° N 01:34:09 61° W 01:38:14 10° SSW
Cosmos 1805 Rocket 4.1 01:32:32 10° N 01:36:53 61° E 01:41:15 10° SSE
ATLAS CENTAUR R/B 1.7 01:35:48 32° NW 01:37:50 62° WSW 01:42:36 10° SSE
Cosmos 1743 Rocket 3.6 01:35:52 24° NNW 01:38:22 54° W 01:42:42 10° S
Cosmos 2219 3.8 01:34:09 10° SW 01:39:10 31° WNW 01:44:07 10° NNW
Meteor PRIRODA 4.0 01:36:10 10° NNE 01:39:51 67° ESE 01:43:33 10° S
Envisat 3.9 01:35:12 10° NNE 01:40:06 52° ESE 01:45:04 10° S
CZ-4C R/B 4.3 01:37:07 10° SSE 01:40:07 37° E 01:43:06 10° N
Cosmos 44 2.9 01:37:05 10° SSW 01:41:23 68° WNW 01:45:50 10° NNE
CZ-4B R/B 3.0 01:37:33 10° NNE 01:41:52 83° ESE 01:46:02 10° S
Exosat Rocket 3.7 01:40:50 18° NW 01:44:43 50° WSW 01:49:34 10° S
deb Chang Zheng 4 3.6 01:41:18 10° NNE 01:45:37 87° E 01:50:00 10° SSW
H-2A R/B 4.1 01:43:03 10° SE 01:47:01 31° E 01:50:52 10° NNE
Cosmos 1151 Rocket 3.9 01:44:28 10° SSW 01:48:06 27° W 01:48:06 27° W
BREEZE M DEB (TANK) 4.3 01:44:44 24° WNW 01:48:11 65° SW 02:10:01 10° SE
GPS 2-15 Rocket1 4.3 01:47:22 23° NW 01:48:54 28° NNW 01:52:56 10° NE
Timation 1 Rocket 4.3 01:45:45 10° SSW 01:51:45 69° WNW 01:57:41 10° N
Cosmos 1302 Rocket 4.4 01:48:57 15° NW 01:52:57 42° WSW 01:57:58 10° S
Sich 1 3.2 01:49:31 10° N 01:53:48 73° E 01:58:07 10° S
Cosmos 2082 3.7 01:50:08 10° SSW 01:55:47 61° WNW 02:01:22 10° N
SL-16 R/B 2.4 01:50:34 10° NW 01:55:58 49° WSW 02:01:28 10° S
Cosmos 2263 Rocket 4.2 01:52:57 10° S 01:58:00 32° ESE 02:02:59 10° NE
BREEZE-M DEB (TANK) 4.0 02:01:47 15° NW 02:01:47 15° NW 02:02:59 10° N
GPS 2-12 Rocket1 3.0 01:58:23 20° WNW 02:01:33 85° N 02:06:07 10° E
Palapa 6 Rocket 3.9 01:59:54 14° WSW 02:05:00 57° S 02:09:53 10° E
Cosmos 1242 Rocket 3.1 02:06:40 10° SSW 02:09:48 33° W 02:12:55 10° NNW
Cosmos 1709 Rocket 4.4 02:06:26 10° NNW 02:12:17 40° W 02:18:08 10° SSW
Cosmos 1812 3.1 02:08:53 10° SSW 02:12:31 39° W 02:16:07 10° NNW
YAOGAN 6 2.5 02:10:11 10° N 02:13:37 57° W 02:17:06 10° SSW
Okean O Rocket 4.4 02:10:12 10° NE 02:13:46 24° ESE 02:17:21 10° SSE
Yuri Rocket 3.6 02:11:38 10° WSW 02:16:31 84° NNW 02:23:11 10° ENE
Nadezhda 1 Rocket 4.4 02:11:09 10° SSW 02:16:42 38° W 02:22:14 10° NNW
Cosmos 2237 4.4 02:20:27 10° NNW 02:25:59 55° WSW 02:31:33 10° S
Cosmos 2227 Rocket 3.9 02:26:17 10° W 02:27:53 11° W 02:29:28 10° WNW
GPS 2-14 Rocket1 2.7 02:24:45 10° W 02:28:42 79° S 02:32:44 10° E
NOAA 12 4.3 02:25:29 10° NNE 02:30:44 79° ESE 02:36:01 10° S
Delta 202 4.5 02:28:05 10° W 02:37:19 80° N 02:43:32 10° E
CZ-3 Stage 3 4.2 02:27:28 10° WSW 03:06:03 89° SSE 03:10:51 10° ENE
